User: anonymous   Login
Location: Marsån
(66.4167°N, 22.2833°E)
Time: 07:55:34
(UTC+00:00)
Language:

Cosmos 1833 Rocket - Orbit

View from above orbital plane
View from above orbital plane
View from above satellite
View from above satellite

Ground track
Ground track

The orbit data is extracted from the following two-line orbital elements,

1 17590U 87027B   24168.70483121 -.00000168  00000-0 -59898-4 0  9993
2 17590  71.0012 165.9574 0005410 338.6464  21.4433 14.16978819925991
Epoch (UTC): 16 June 2024 16:54:57
Eccentricity: 0.0005410
inclination: 71.0012°
perigee height: 831 km
apogee height: 839 km
right ascension of ascending node: 165.9574°
argument of perigee: 338.6464°
revolutions per day: 14.16978819
mean anomaly at epoch: 21.4433°
orbit number at epoch: 92599

The dashed part of the orbit path shows where the satellite is in the earth's shadow,  

DLR